Starlink 36825

operational
NORAD ID: 68041 Int'l Des: 2026-041 Owner: SPXS Country: US Constellation: starlink
NOTLE

Über Starlink 36825

Beschreibung wird geladen...

Live-Position

3D-Globus wird geladen...

Nächste Überflüge

Höhenverlauf

Altitude vs Time

uPlot chart will show altitude changes over time

Zweizeiliger Elementsatz

1 68041C 26041B 26061.44215278 .00467470 00000+0 62947-3 0 618
2 68041 53.1641 99.6777 0008427 277.6517 147.5022 16.05201923 13
Epoch: 2. März 2026 • Age: 27 hours

Aktueller Status

Höhe 270.2 km
Geschwindigkeit 7.75 km/s
Subsatellitenpunkt 53.26°N, 18.31°W
Startdatum 2. März 2026
Alter 1 days
Typ internet

Technische Details

Klassifizierung Payload
Masse 575.00 kg
Trockenmasse 530.00 kg
Gesamtmasse 575.00 kg
Länge 0.30 m
Durchmesser 4.10 m
Spannweite 29.00 m
Form Box + pan
Hersteller SPXS
Bus-Typ Starlink V2MO
Phasenstatus In Orbit
Besitzer/Staat SPXS/US

Große Konstellationen

Loading constellations...